Location: Gilevgi
(36.8751°N, 30.0581°E)
Time: 18:49:53
(UTC+00:00)

Cosmos 1607 - Pass Details

Date: 11 December 2025
Orbit: 925 x 976 km, 65.0° (Epoch: 15 January)

Event Time Altitude Azimuth Distance (km) Brightness Sun altitude
Rises 15:35:05 0° 329° (NNW) 3,615 7.1 -10.2°
Reaches altitude 10° 15:37:37 10° 330° (NNW) 2,674 6.4 -10.7°
Maximum altitude 15:43:53 89° 248° (WSW) 962 4.0 -11.8°
Drops below altitude 10° 15:50:13 10° 152° (SSE) 2,695 6.2 -13.0°
Sets 15:52:46 0° 153° (SSE) 3,644 6.9 -13.5°
